カタログに戻る

STARLINK-31509

運用中通信VLEO
NORAD 59533·PAYLOAD·🇺🇸 United States

打ち上げ Apr 17, 2024 から Cape Canaveral Space Force Station

Loading…

次のパス (今後24時間)

TLE

最新Source: CelesTrak SupGP

元期: Sep 14, 2026, 20:48 UTC

1 59533C 24073Y   26257.86715278 -.00020129  00000+0 -72909-3 0  2579
2 59533  43.0038 330.0396 0001691 273.6449  76.7948 15.27588045    18

AllMySatでSTARLINK-31509をリアルタイム追跡

Download on the App Store